SOYUZ-MS 13

Last updated on Fri Feb 07 2020 00:02:12 GMT+0000 (Coordinated Universal Time)

1 44437U 19041A 20036.60022625 .00001054 00000-0 27188-4 0 9991 2 44437 51.6436 284.4933 0005313 230.6600 208.0697 15.49143427 31018
UTC large
Height (km)
Speed (km/s)
/
Latitude / Longitude
Inclination (degrees)
Orbital Period (minutes)
Azimuth
Elevation
Range (km)
Doppler Factor

Next 0 passes for location: London (51.5072 / 0.1276)

Sorry there are no passes over London.